Regional Weather Roundup
Issued by NWS Bismarck, ND

Home | Current Version | Previous Version | Text Only | Print | Product List | Glossary On
Versions: 1 2 3 4 5 6 7 8 9 10 11 12 13 14 15 16 17 18 19 20 21 22 23 24 25 26 27 28 29 30 31 32 33 34 35 36 37 38 39 40 41 42 43 44 45 46 47 48 49 50
000
ASUS43 KBIS 261202
RWRBIS

NWR BROADCAST TEXT
NATIONAL WEATHER SERVICE BISMARCK ND
700 AM CDT THU MAY 26 2016

NOTE: "FAIR" INDICATES FEW OR NO CLOUDS BELOW 12,000 FEET WITH NO
SIGNIFICANT WEATHER AND/OR OBSTRUCTIONS TO VISIBILITY.


CITY           SKY/WX    TMP DP  RH WIND       PRES   REMARKS
WILLISTON      CLOUDY    48  47  96 W6        29.81F FOG
MINOT          CLOUDY    58  54  86 W8        29.76R
MINOT AFB      CLOUDY    55  55  97 NW7       29.75R
BISMARCK       CLEAR     47  44  90 SW6       29.82R
DICKINSON      PTCLDY    44  42  93 W6        29.80S
GARRISON         N/A     50  48  93 W9        29.79R
HETTINGER ARPT CLOUDY    39  37  92 CALM      29.85F
JAMESTOWN      CLOUDY    55  53  93 W13       29.77R
CARRINGTON     CLOUDY    55  54  94 W12       29.78S FOG
HAZEN          FAIR      43  43 100 W6        29.83R
MANDAN         FAIR      45  45 100 W8        29.82S
OAKES            N/A    N/A N/A N/A MISG        N/A
STANLEY        FOG       50  50 100 W7        29.81R VSB 3/4
$$

CITY           SKY/WX    TMP DP  RH WIND       PRES   REMARKS
GRAND FORKS    CLOUDY    58  55  90 SW6       29.71S
GRAND FORKS AF MOSUNNY   56  56 100 SW5       29.72R
DEVILS LAKE    CLOUDY    56  55  97 W6        29.75R
FARGO          SUNNY     56  53  90 SW6       29.75R
CAVALIER       CLOUDY    57  57 100 W12       29.67S
GRAFTON        FAIR      57  57 100 SW9       29.70F
GWINNER        FAIR      54  52  94 SW15      29.80R
LANGDON        CLOUDY    55  55 100 NW13      29.71S
$$

CITY           SKY/WX    TMP DP  RH WIND       PRES   REMARKS
ABERDEEN       CLEAR     50  47  89 SE3       29.85R
MOBRIDGE       CLEAR     50  45  83 CALM      29.82R
BUFFALO          N/A     42  39  89 SW6       29.82R
RAPID CITY     CLEAR     47  42  83 NW8       29.90R
GLASGOW        CLEAR     44  42  93 NW7       29.84R
SIDNEY         PTCLDY    46  45  93 CALM      29.82R
WOLF POINT     PTCLDY    42  41  96 W3        29.83S
GLENDIVE       CLOUDY    50  46  87 W9        29.86S
MILES CITY     MOCLDY    50  46  86 W8        29.87R
BAKER          CLEAR     44  42  93 W7        29.87R
$$

CITY           SKY/WX    TMP DP  RH WIND       PRES   REMARKS
BILLINGS       PTCLDY    49  42  77 SW16      29.93S
GREAT FALLS    CLOUDY    46  41  82 W3        29.95S
REGINA         LGT RAIN  54  52  94 NE13      29.84R
$$





USA.gov is the U.S. government's official web portal to all federal, state and local government web resources and services.